Location: Eurasberg
(48.3353°N, 11.0839°E)
Time: 09:17:35
(UTC+00:00)

Cosmos 2278 Rocket - Pass Details

Date: 18 January 2026
Orbit: 839 x 846 km, 71.0° (Epoch: 17 February)

Event Time Altitude Azimuth Distance (km) Brightness Sun altitude
Exits shadow 05:56:17 - 244° (WSW) 3,186 4.8 -10.4°
Reaches altitude 10° 05:58:29 10° 254° (WSW) 2,457 4.1 -10.0°
Maximum altitude 06:03:18 28° 313° (NW) 1,523 3.0 -9.3°
Drops below altitude 10° 06:08:10 10° 12° (NNE) 2,472 4.5 -8.5°
Sets 06:10:59 0° 24° (NNE) 3,411 5.4 -8.1°
